Location: Veytaux
(46.4185°N, 6.9320°E)
Time: 08:04:31
(UTC+00:00)

Cosmos 962 Rocket - Pass Details

Date: 27 May 2022
Orbit: 950 x 1000 km, 82.9° (Epoch: 01 July)

Event Time Altitude Azimuth Distance (km) Brightness Sun altitude
Rises 02:19:12 0° 350° (N) 3,644 8.1 -12.2°
Reaches altitude 10° 02:21:43 10° 349° (NNW) 2,690 7.4 -11.9°
Maximum altitude 02:27:50 77° 265° (W) 979 4.4 -11.2°
Drops below altitude 10° 02:33:55 10° 180° (S) 2,668 6.4 -10.5°
Enters shadow 02:36:07 - 179° (S) 3,507 7.0 -10.2°
